Palm Beach International Airport West Palm Beach US
ICAO: KPBI
IATA: PBI
Category: Large
Scheduled Services: Yes

Elevation: 19 ft
TransAlt. 18000 ft.

Airport Communications:
APP:124.6
ASOS:119.975
ATIS:123.75
CLNC DEL:121.6
DEP:127.35
GND:121.9
MIAMI RDO:122.4
TWR:119.1
UNICOM:122.95

KPBI Zoom In..

Runways:

(A) RW 10L length 10000 ft width 150 ft
ILS 111.90 / hdg 99

(B) RW 10R length 3213 ft width 75 ft
---- / hdg 99

(C) RW 14 length 6931 ft width 150 ft
---- / hdg 141

(D) RW 28L length 3213 ft width 75 ft
---- / hdg 279

(E) RW 28R length 10000 ft width 150 ft
ILS 111.90 / hdg 279

(F) RW 32 length 6931 ft width 150 ft
---- / hdg 321

Location; KPBI
Day. 29 / Time. 15.53 Zulu
* Altimeter: 30.06
* Temperature: 26° c. 78.8°f.
* Wind from: 170° Speed 05 kn.
Dewpoint: 19° c.
Visibility: 10 Statute Miles.
Clouds: Scattered 2900 ft.
Clouds: Broken 5000 ft.
Clouds: Broken 25000 ft.

KPBI 291553Z 17005KT 10SM SCT029 BKN050 BKN250 26/19 A3006 RMK AO2 SLP179 T02610194

Going to: --> -->


Wind From 170°
Speed 05 kn.

 
 
jpsmedia worldairports.se 2020   terms of use